Weather in Sovetskaya

Russia / Krasnodar Krai     44°46′26″N   41°10′27″E
temp.,
°C
wind,
m/s
gust,
m/s
humid.,
%
clouds,
%
prec.,
mm/h
press.,
hPa
HPBL,
m
4 july, mon
mon400:00+16wsw2258100 0.0 101622
03:00+16wsw226025 0.0 101614
06:00+15sw23715 0.0 101792
09:00+21wsw21520 0.0 1016526
12:00+25n21380 0.0 10162013
15:00+26n22370 0.0 10152077
18:00+25nne12440 0.0 10141552
21:00+19sse22540 0.0 101512
5 july, tue
tue500:00+18s33563 0.0 101530
03:00+16ssw11620 0.0 101511
06:00+17s11660 0.0 101630
09:00+24n11470 0.0 1015521
12:00+27nne34440 0.0 10151479
15:00+28ne44380 0.0 10142399
18:00+26ne47470 0.0 1014352
21:00+20e47540 0.0 101598
6 july, wed
wed600:00+18ese49540 0.0 1015133
03:00+16ese410520 0.0 1015152
06:00+16ese410640 0.0 1015195
09:00+23e710420 0.0 1015697
12:00+27e89340 0.0 10141663
15:00+28e89340 0.0 10131943
18:00+25e610430 0.0 1012809
21:00+19e514520 0.0 1013323
7 july, thu
thu700:00+20e716360 0.0 1012513
03:00+18e615540 0.0 1012456
06:00+17e716570 0.0 1012497
09:00+22e913510 0.0 1011862
12:00+26e1012460 0.0 10111385
15:00+27e910430 0.0 10101653
18:00+26e812490 0.0 10101273
21:00+23e815450 0.0 1010768
8 july, fri
fri800:00+19e816480 0.0 1010559
03:00+17ese614560 0.0 1011444
06:00+16ese713650 0.0 1011395
09:00+23ese78550 0.0 1010721
12:00+27e77460 0.0 10101397
15:00+29e77420 0.0 10091596
18:00+28e694841 0.0 1009881
21:00+22ese47620 0.0 1009111